Regional Weather Roundup
Issued by NWS

Home | Current Version | Previous Version | Text Only | Print | Product List | Glossary On
Versions: 1 2 3 4 5 6 7 8 9 10 11 12 13 14 15 16 17 18 19 20 21 22 23 24 25 26 27 28 29 30 31 32 33 34 35 36 37 38 39 40 41 42 43 44 45 46 47 48 49 50
000
ASUS43 KMKX 270520
RWRWI

WISCONSIN REGIONAL WEATHER ROUNDUP
NATIONAL WEATHER SERVICE MILWAUKEE/SULLIVAN WI
1200 AM CDT WED MAY 27 2015

NOTE: "FAIR" INDICATES FEW OR NO CLOUDS BELOW 12,000 FEET WITH NO
SIGNIFICANT WEATHER AND/OR OBSTRUCTIONS TO VISIBILITY.

WIZ001-002-006>008-014>016-023>028-270600-
NORTHWEST WISCONSIN

CITY           SKY/WX    TMP DP  RH WIND       PRES   REMARKS
SUPERIOR ARPT  CLOUDY    52  51  97 CALM      29.79S
ASHLAND        LGT RAIN  52  52 100 CALM      29.78S FOG
HAYWARD        LGT RAIN  54  53  97 CALM      29.79R
SIREN          CLOUDY    55  53  95 N3        29.80S
CUMBERLAND     LGT RAIN  54  54 100 NW7       29.79R
RICE LAKE      DRIZZLE   55  54  94 W3        29.80R
CHETEK         DRIZZLE   55  55  98 W6        29.78R
LADYSMITH      DRIZZLE   55  54  97 NW7       29.76S
EAU CLAIRE     NOT AVBL
MENOMONIE      CLOUDY    58  57  99 W5        29.79R
NEW RICHMOND   CLOUDY    56  56 100 W3        29.81S
OSCEOLA        LGT RAIN  56  56 100 W3        29.83S
$$

WIZ003>005-009-010-017-018-270600-
NORTH CENTRAL WISCONSIN

CITY           SKY/WX    TMP DP  RH WIND       PRES   REMARKS
MANITOWISH WTR LGT RAIN  53  53 100 N6        29.71S
ARBOR VITAE    CLOUDY    57  55  95 N10       29.69S
WOODRUFF       CLOUDY    57  55  95 N10       29.69S
RHINELANDER    LGT RAIN  58  57  97 VRB6      29.67S FOG
EAGLE RIVER    DRIZZLE   57  57  99 N8        29.67F
LAND O LAKES   RAIN      56  56  99 N9        29.69F
PHILLIPS       HVY RAIN  53  53  99 N7        29.72R
TOMAHAWK       DRIZZLE   57  56  97 NW8       29.68S
MEDFORD        DRIZZLE   56  55  97 NW9       29.71R
MERRILL        CLOUDY    60  60 100 N9        29.66S
$$

WIZ029-030-035-036-043>047-270600-
CENTRAL WISCONSIN

CITY           SKY/WX    TMP DP  RH WIND       PRES   REMARKS
WAUSAU         HVY RAIN  61  60  97 W14       29.65R FOG
MOSINEE        HVY RAIN  61  61 100 W9G17     29.66R
MARSHFIELD     LGT RAIN  59  56  89 NW15      29.70R
STEVENS POINT  CLOUDY    59  59  99 CALM      29.62S
WAUPACA        LGT RAIN  63  62  97 SW15G25   29.64S
WAUTOMA        NOT AVBL
WISC RAPIDS    CLOUDY    60  57  89 W13       29.70R
CAMP DOUGLAS   MOCLDY   N/A N/A N/A W13       29.75R
$$

WIZ011>013-019>022-031-037>040-048>050-270600-
NORTHEAST WISCONSIN

CITY           SKY/WX    TMP DP  RH WIND       PRES   REMARKS
ANTIGO         CLOUDY    59  59  97 N9        29.64S
SHAWANO        LGT RAIN  63  61  92 SW8       29.63R
OCONTO         CLOUDY    64  64 100 SW13      29.62R
STURGEON BAY   CLOUDY    57  54  88 S9        29.66S
GREEN BAY      CLOUDY    64  59  83 SW13G22   29.65S
MANITOWOC      NOT AVBL
APPLETON       CLOUDY    63  57  82 SW21G26   29.67S
CLINTONVILLE   CLOUDY    61  59  94 S12       29.63S
OSHKOSH        CLOUDY    64  57  78 SW14G25   29.70R
$$

WIZ032>034-041-042-053>061-270600-
SOUTHWEST WISCONSIN

CITY           SKY/WX    TMP DP  RH WIND       PRES   REMARKS
LA CROSSE      LGT RAIN  62  58  86 W6        29.78R
SPARTA         CLOUDY    60  58  95 SW7       29.77R
VIROQUA        CLOUDY    58  58 100 W9        29.79S
BOSCOBEL       MOCLDY    60  58  92 CALM      29.80R
PRAIRIE DU CHI CLOUDY    60  58  92 SW5       29.80S
PLATTEVILLE    CLEAR     60  58  96 W6        29.82R
$$

WIZ056-057-062-063-064-067-068-270600-
SOUTH CENTRAL WISCONSIN

CITY           SKY/WX    TMP DP  RH WIND       PRES   REMARKS
REEDSBURG      MOCLDY    61  58  90 SW8       29.76S
BARABOO/DELLS  MOCLDY    61  56  84 SW12      29.76F
LONE ROCK      NOT AVBL
MINERAL POINT  CLEAR     61  59  94 SW8       29.82R
MADISON        CLEAR     62  57  83 SW7       29.79R
MIDDLETON      CLEAR     63  58  84 SW8       29.80S
WATERTOWN      CLEAR     62  62  99 SW10      29.78S
MONROE         MOCLDY    61  59  94 SW8       29.82S
JANESVILLE     CLOUDY    64  61  88 SW5       29.81S
$$

WIZ051-052-058>065-066-070>072-270600-
SOUTHEAST WISCONSIN

CITY           SKY/WX    TMP DP  RH WIND       PRES   REMARKS
MILWAUKEE      PTCLDY    64  58  80 SW12      29.79S
WAUKESHA       PTCLDY    63  55  77 SW10      29.81R
MILWAUKEE/TIMM CLEAR     64  55  72 SW13G18   29.79S
RACINE         MOCLDY    66  59  78 SW13      29.82S
BURLINGTON     MOCLDY    62  59  90 SW6       29.81S
KENOSHA        CLOUDY    67  61  81 SW10      29.82S
FOND DU LAC    CLOUDY    63  57  81 SW16G26   29.73R
SHEBOYGAN      CLEAR     63  57  81 SW21G35   29.72R
WEST BEND      CLEAR     63  55  77 SW15G23   29.76S
JUNEAU         PTCLDY    61  58  88 SW14      29.78R
$$

LSZ147-162-270600-
LAKE SUPERIOR

STATION/POSITION TIME  TEMP    WIND        PRES    WAVE
                       AIR SEA DIR/SP/G            HT/PER
                 (UTC) (F)     (DEG/KT/KT) (MB)    (FT/S)
W MID LAKE BUOY  0350   44 37  360/  8/  8 1079.0F   0
DEVILS ISLAND    0400   50     290/  4/  5 1086.0R
PORT WING        0300   51     180/  2/  3 1088.0
SAXON HARBOR     0440   48        CALM     1081.0S
$$

LMZ867-665-643>646-270600-
LAKE MICHIGAN

STATION/POSITION TIME  TEMP    WIND        PRES    WAVE
                       AIR SEA DIR/SP/G            HT/PER
                 (UTC) (F)     (DEG/KT/KT) (MB)    (FT/S)
CHAMBERS ISLAND  0400   55     130/  4/  6 1041.0F
N MID LAKE BUOY  0350   47 37  190/ 12/ 16 1051.0F   1/ 4
NORTHPORT PIER   0400   48     160/ 10/ 13 1044.0F
SISTER BAY       0403   49     160/  9/ 14   N/A
KEWAUNEE LAKESHO 0400   49     190/  9/ 11 1039.0S
SHEBOYGAN LAKESH 0400   65     220/ 19/ 22 1064.0R
PORT WASHINGTON  0300   67     240/ 10/ 20 1078.0
ATWATER BUOY     0400   64 45  220/ 14/ 16   N/A
MILWAUKEE LAKESH 0400   67     240/ 16/ 20   N/A
S MID LAKE BUOY  0350   47 38  200/ 14/ 16   N/A     2/ 4
KENOSHA   LAKESH 0400   67     220/  7/ 13   N/A
$$

TC  - TEMPERATURE IN CELSIUS
VSB - VISIBILITY IN STATUTE MILES
WCI - WIND CHILL INDEX
HX  - HEAT INDEX




USA.gov is the U.S. government's official web portal to all federal, state and local government web resources and services.